Find Starlink 34929

NORAD ID: 65178 Int'l Des: 2025-175 Owner: SPXS Country: US Constellation: starlink operational
LEOCIRCULARRETROGRADESSO

当前视图

正在加载3D地球...

About Starlink 34929

Starlink 34929 (NORAD 65178) is a starlink constellation satellite (v2 mini) launched Aug 14, 2025 by SPXS of US. It operates in LEO, CIRCULAR, RETROGRADE, SSO orbit with a mass of 575.00 kg.

即将过境

Passes for default location (London). Set your location on the main map for personalized predictions.

高度历史

Loading altitude history...

两行轨道根数

1 65178U 25175E 26263.61205870 .00009638 00000-0 30040-3 0 9991
2 65178 97.2843 132.6432 0002357 90.2096 269.9417 15.33451235 62150
Epoch: Sep 20, 2026 • Age: 20 hours

当前状态

高度 495.2 km
远地点 / 近地点 N/A
速度 7.61 km/s
星下点 -80.22°S, 20.39°E
发射日期 Aug 14, 2025
运行时间 1.1 years
类型 internet

技术详情

分类 Payload
质量 575.00 kg
干质量 530.00 kg
长度 0.30 m
跨度 29.00 m
形状 ? Box + pan
制造商 SPXS
平台类型 Starlink V2MO
阶段状态 In Orbit
所有者/国家 SPXS/US

Most Searched